[[{"header":{"parameterUnit":"m.s-1","parameterCategory":1,"la1":30.2991,"la2":30.254,"lo1":-89.0895,"lo2":-89.0444,"dy":0.0017,"dx":0.0017,"nx":28,"ny":28,"refTime":"2025-07-04T09:00:00:Z","depth":0,"parameterNumber":2,"parameterNumberName":"U-component_of_WINDS"},"data":[0,0,0,0,0,0,0,0,0,0,0,0,0,0,0,0,0,0,0,0,0,0,0,0,0,0,0,0,0,0,0,0,0,0,0,0,0,0,0,0,0,0,0,0,0,0,0,0,0,0,0,0,0,0,0,0,0,0,-0.6713,-0.6714,0,-0.6753,-0.6753,-0.6754,-0.6697,-0.6695,-0.6693,-0.6691,-0.6734,-0.6737,-0.674,0,0,0,0,0,0,0,0,0,0,0,0,0,-0.6591,-0.6594,-0.6713,-0.6714,-0.6714,-0.6753,-0.6753,-0.6754,-0.6697,-0.6695,-0.6692,-0.669,-0.6733,-0.6737,-0.6741,0,0,0,0,0,0,0,0,0,0,0,0,0,-0.6639,-0.6594,-0.6713,-0.6691,-0.6689,-0.6753,-0.6753,-0.6754,-0.6698,-0.6695,-0.6692,-0.6689,-0.6732,-0.6737,-0.6741,-0.683,0,0,-0.6755,-0.6757,0,0,0,0,0,0,0,0,-0.6636,-0.6643,-0.6693,-0.6692,-0.669,-0.6717,-0.6726,-0.678,-0.6698,-0.6694,-0.6691,-0.6687,-0.6731,-0.6736,-0.675,-0.6832,-0.6834,-0.6756,-0.6758,-0.676,-0.6762,0,0,0,0,0,0,0,-0.6633,-0.6641,-0.6729,-0.6694,-0.6692,-0.6679,-0.6683,-0.6736,-0.6729,-0.6695,-0.669,-0.6696,-0.673,-0.6746,-0.675,-0.6835,-0.6755,-0.6759,-0.6762,-0.6764,-0.6992,-0.6995,0,0,0,0,0,0,-0.6632,-0.6639,-0.6728,-0.673,-0.6655,-0.6684,-0.6688,-0.6711,-0.6729,-0.6728,-0.6698,-0.6693,-0.6739,-0.6745,-0.6752,-0.6858,-0.676,-0.6764,-0.6767,-0.6989,-0.6993,-0.6996,0,0,0,0,0,0,-0.663,-0.664,-0.6726,-0.6684,-0.6693,-0.6689,-0.6716,-0.6714,-0.6729,-0.6731,-0.673,-0.6716,-0.6737,-0.6745,-0.6811,-0.6858,-0.6767,-0.6771,-0.6985,-0.699,-0.6994,-0.707,0,0,0,0,0,0,-0.6626,-0.664,-0.6673,-0.6685,-0.6696,-0.6784,-0.6719,-0.6717,-0.6737,-0.6731,-0.6747,-0.6747,-0.6735,-0.6804,-0.6815,-0.6863,-0.6774,-0.698,-0.6987,-0.6993,-0.7063,-0.7077,-0.7088,0,0,0,0,0,-0.6622,-0.6693,-0.6675,-0.6686,-0.6737,-0.6787,-0.6794,-0.6778,-0.6741,-0.6775,-0.6776,-0.6747,-0.6851,-0.6812,-0.6823,-0.6873,-0.6977,-0.6985,-0.6992,-0.7057,-0.7074,-0.7088,0,0,0,0,0,0,-0.6689,-0.6695,-0.6674,-0.6751,-0.6769,-0.6777,-0.682,-0.6796,-0.6825,-0.6818,-0.6797,-0.6802,-0.6872,-0.6879,-0.6835,-0.696,-0.6908,-0.6918,-0.6953,-0.6969,-0.6982,-0.6979,-0.6778,0,0,0,0,0,-0.6712,-0.6752,-0.6754,-0.6822,-0.6832,-0.6824,-0.6845,-0.6831,-0.6849,-0.6857,-0.6863,-0.6882,-0.6919,-0.6944,-0.6978,-0.7063,-0.7066,-0.7103,-0.7115,-0.7126,-0.7136,-0.7181,-0.7198,-0.7021,-0.7021,-0.7021,0,0,-0.6762,-0.677,-0.6796,-0.6836,-0.6848,-0.689,-0.6831,-0.6878,-0.6909,-0.6864,-0.6927,-0.6932,-0.6952,-0.7027,-0.7061,-0.7035,-0.7185,-0.7135,-0.7144,-0.7148,-0.7191,-0.7208,-0.7223,-0.7026,-0.7025,-0.7024,0,0,-0.6874,-0.6883,-0.694,-0.6953,-0.6972,-0.6966,-0.698,-0.6992,-0.6993,-0.7055,-0.7022,-0.7059,-0.7123,-0.7139,-0.7156,-0.7272,-0.7247,-0.7284,-0.7351,-0.7395,-0.7409,-0.7422,-0.7465,-0.748,-0.7293,-0.7293,-0.7293,0,-0.6933,-0.6994,-0.6973,-0.7023,-0.7041,-0.7001,-0.706,-0.7074,-0.7103,-0.7117,-0.7087,-0.7167,-0.7177,-0.7257,-0.7285,-0.7299,-0.7315,-0.7283,-0.7409,-0.7421,-0.7432,-0.7473,-0.7489,-0.7298,-0.7297,-0.7297,-0.7296,0,-0.7067,-0.711,-0.7154,-0.7182,-0.7206,-0.726,-0.7248,-0.7274,-0.7258,-0.7256,-0.7319,-0.733,-0.7366,-0.7383,-0.7368,-0.7461,-0.7444,-0.7412,-0.736,-0.7454,-0.7492,-0.7507,-0.7304,-0.7302,-0.7301,-0.73,0,0,-0.7224,-0.7239,-0.7256,-0.7268,-0.7285,-0.7318,-0.737,-0.7404,-0.7428,-0.7449,-0.7493,-0.7547,-0.7517,-0.7536,-0.7522,-0.7561,-0.7654,-0.7524,-0.7524,-0.7549,-0.7758,-0.7783,-0.7801,-0.7636,-0.7639,-0.7641,-0.7756,0,-0.7337,-0.7426,-0.7408,-0.7495,-0.7535,-0.7497,-0.7542,-0.7558,-0.7557,-0.7591,-0.7589,-0.7629,-0.7586,-0.7597,-0.7634,-0.7635,-0.7696,-0.7626,-0.7678,-0.768,-0.7676,-0.7821,-0.7848,-0.7957,-0.7771,-0.7773,-0.7775,0,-0.748,-0.7506,-0.7597,-0.7607,-0.7623,-0.7664,-0.7694,-0.7727,-0.7744,-0.774,-0.7761,-0.7739,-0.7791,-0.7737,-0.7809,-0.7762,-0.7782,-0.7785,-0.7789,-0.7795,-0.7735,-0.7833,-0.7991,-0.8008,-0.7798,-0.7796,-0.7795,0,-0.7588,-0.7645,-0.7707,-0.7718,-0.7731,-0.7761,-0.7768,-0.7782,-0.7804,-0.783,-0.7843,-0.7875,-0.7894,-0.7919,-0.7907,-0.7868,-0.7982,-0.7926,-0.7982,-0.7982,-0.8009,-0.8008,-0.8175,-0.8019,-0.8019,-0.8019,-0.8018,0,-0.7716,-0.7774,-0.7755,-0.7794,-0.7857,-0.7836,-0.79,-0.7902,-0.7915,-0.7954,-0.7922,-0.7959,-0.794,-0.7976,-0.7966,-0.8029,-0.8036,-0.8036,-0.8033,-0.804,-0.804,-0.8054,-0.8047,-0.8023,-0.8022,-0.8021,-0.8021,0,-0.7848,-0.7837,-0.7903,-0.7909,-0.7912,-0.7959,-0.7965,-0.8001,-0.7997,-0.8046,-0.8057,-0.805,-0.8091,-0.8081,-0.8125,-0.8119,-0.8198,-0.8184,-0.8192,-0.8189,-0.8246,-0.8242,-0.8429,-0.8453,-0.8281,-0.8282,-0.8283,0,-0.7932,-0.7975,-0.7986,-0.8009,-0.8018,-0.8056,-0.8078,-0.8058,-0.8082,-0.8104,-0.8138,-0.8175,-0.8205,-0.8272,-0.8272,-0.8306,-0.8294,-0.8357,-0.8299,-0.8305,-0.8297,-0.8295,-0.83,-0.837,-0.8372,-0.8373,-0.8375,0,-0.8082,-0.8074,-0.8106,-0.8136,-0.8162,-0.8185,-0.8205,-0.8226,-0.8208,-0.8237,-0.8277,-0.83,-0.8344,-0.8383,-0.8414,-0.8421,-0.8396,-0.8392,-0.8407,-0.8416,-0.8419,-0.842,-0.8226,-0.8389,-0.8388,-0.8386,-0.8386,-0.8385,-0.8194,-0.8231,-0.8244,-0.828,-0.8293,-0.8312,-0.8346,-0.8346,-0.8379,-0.8414,-0.84,-0.8447,-0.8462,-0.8501,-0.8513,-0.855,-0.8526,-0.8547,-0.8553,-0.8559,-0.8567,-0.8411,-0.8555,-0.8555,-0.8554,-0.8554,-0.8554,0,-0.8344,-0.835,-0.8383,-0.8412,-0.8441,-0.8412,-0.8432,-0.8459,-0.85,-0.8516,-0.8545,-0.8592,-0.8629,-0.8631,-0.8665,-0.8695,-0.8684,-0.8704,-0.8703,-0.8706,-0.8585,-0.857,-0.8713,-0.8713,-0.8713,-0.8713,-0.8713,-0.8713,-0.8426,-0.8487,-0.848,-0.8548,-0.8553,-0.8599,-0.8613,-0.8631,-0.8643,-0.8697,-0.8727,-0.8727,-0.8738,-0.8773,-0.8805,-0.8805,-0.882,-0.8846,-0.8842,-0.873,-0.8714,-0.8699,-0.8684,-0.8849,-0.8849,-0.8959,-0.896,-0.896]},{"header":{"parameterUnit":"m.s-1","parameterCategory":1,"la1":30.2991,"la2":30.254,"lo1":-89.0895,"lo2":-89.0444,"dy":0.0017,"dx":0.0017,"nx":28,"ny":28,"refTime":"2025-07-04T09:00:00:Z","depth":0,"parameterNumber":3,"parameterNumberName":"V-component_of_WINDS"},"data":[0,0,0,0,0,0,0,0,0,0,0,0,0,0,0,0,0,0,0,0,0,0,0,0,0,0,0,0,0,0,0,0,0,0,0,0,0,0,0,0,0,0,0,0,0,0,0,0,0,0,0,0,0,0,0,0,0,0,-2.7097,-2.7097,0,-2.7163,-2.7164,-2.7165,-2.7146,-2.7145,-2.7144,-2.7142,-2.7209,-2.7212,-2.7215,0,0,0,0,0,0,0,0,0,0,0,0,0,-2.6953,-2.6955,-2.7097,-2.7098,-2.7098,-2.7163,-2.7164,-2.7165,-2.7147,-2.7145,-2.7143,-2.7142,-2.7208,-2.7211,-2.7215,0,0,0,0,0,0,0,0,0,0,0,0,0,-2.7017,-2.6956,-2.7097,-2.7097,-2.7098,-2.7163,-2.7164,-2.7165,-2.7147,-2.7145,-2.7143,-2.7141,-2.7207,-2.7211,-2.7215,-2.7283,0,0,-2.7229,-2.7231,0,0,0,0,0,0,0,0,-2.7013,-2.7022,-2.7096,-2.7097,-2.7098,-2.7144,-2.7137,-2.7205,-2.7147,-2.7128,-2.7142,-2.714,-2.7189,-2.7195,-2.7212,-2.7286,-2.7289,-2.723,-2.7232,-2.7234,-2.7236,0,0,0,0,0,0,0,-2.7009,-2.7019,-2.7123,-2.7097,-2.7099,-2.7094,-2.71,-2.715,-2.7169,-2.713,-2.7129,-2.7137,-2.7189,-2.7207,-2.7213,-2.729,-2.723,-2.7234,-2.7236,-2.7238,-2.7424,-2.7426,0,0,0,0,0,0,-2.7004,-2.7015,-2.7121,-2.7125,-2.705,-2.7098,-2.7105,-2.7132,-2.7168,-2.7172,-2.7138,-2.7136,-2.72,-2.7208,-2.7215,-2.7297,-2.7234,-2.7238,-2.7241,-2.7421,-2.7424,-2.7426,0,0,0,0,0,0,-2.7001,-2.7013,-2.7118,-2.707,-2.7083,-2.7102,-2.7132,-2.7134,-2.7152,-2.7175,-2.7178,-2.7154,-2.7199,-2.7209,-2.7266,-2.7299,-2.7241,-2.7245,-2.7419,-2.7422,-2.7425,-2.746,0,0,0,0,0,0,-2.6997,-2.7012,-2.7039,-2.7071,-2.7086,-2.7169,-2.7134,-2.7137,-2.716,-2.7157,-2.719,-2.7194,-2.7198,-2.726,-2.7271,-2.7304,-2.7248,-2.7416,-2.742,-2.7424,-2.7456,-2.7464,-2.7471,0,0,0,0,0,-2.6992,-2.7046,-2.704,-2.7053,-2.7119,-2.7171,-2.7179,-2.7184,-2.7163,-2.7189,-2.7204,-2.7192,-2.7294,-2.7266,-2.7278,-2.7313,-2.7414,-2.7419,-2.7424,-2.7453,-2.7463,-2.7471,0,0,0,0,0,0,-2.7016,-2.705,-2.7044,-2.711,-2.7138,-2.7168,-2.7201,-2.7194,-2.7228,-2.7224,-2.7228,-2.7236,-2.7295,-2.731,-2.7278,-2.738,-2.735,-2.7358,-2.7368,-2.7378,-2.7385,-2.738,-2.7252,0,0,0,0,0,-2.703,-2.707,-2.7096,-2.7152,-2.7166,-2.7181,-2.7204,-2.7206,-2.7234,-2.7246,-2.7264,-2.7292,-2.733,-2.7355,-2.7391,-2.7459,-2.7465,-2.7488,-2.7496,-2.7502,-2.7508,-2.7545,-2.7555,-2.7443,-2.7443,-2.7443,0,0,-2.7057,-2.708,-2.7105,-2.7158,-2.7179,-2.722,-2.7191,-2.7235,-2.7265,-2.7252,-2.7308,-2.7323,-2.7354,-2.7416,-2.7445,-2.7431,-2.7541,-2.7508,-2.7513,-2.7516,-2.7551,-2.7561,-2.7571,-2.7446,-2.7446,-2.7445,0,0,-2.7128,-2.715,-2.7199,-2.7221,-2.7254,-2.7264,-2.7276,-2.7307,-2.7316,-2.7372,-2.7363,-2.7398,-2.7464,-2.7486,-2.7506,-2.7586,-2.7576,-2.7597,-2.7636,-2.7672,-2.768,-2.7688,-2.7716,-2.7726,-2.7604,-2.7604,-2.7604,0,-2.7158,-2.7219,-2.7224,-2.7269,-2.7292,-2.7283,-2.7332,-2.7353,-2.7396,-2.7412,-2.7396,-2.7477,-2.7498,-2.7565,-2.7585,-2.7602,-2.7615,-2.7593,-2.7679,-2.7687,-2.7694,-2.7721,-2.7731,-2.7606,-2.7606,-2.7606,-2.7605,0,-2.7254,-2.7297,-2.7332,-2.7374,-2.7401,-2.7448,-2.746,-2.7486,-2.7486,-2.7497,-2.7554,-2.7578,-2.7619,-2.7635,-2.7635,-2.7703,-2.7693,-2.7678,-2.7648,-2.7707,-2.7732,-2.7742,-2.7609,-2.7609,-2.7608,-2.7607,0,0,-2.7342,-2.7387,-2.74,-2.7418,-2.7455,-2.7487,-2.7533,-2.7574,-2.7596,-2.7627,-2.7665,-2.7721,-2.7707,-2.773,-2.7732,-2.7763,-2.7824,-2.7744,-2.7744,-2.7757,-2.7899,-2.791,-2.7922,-2.7818,-2.782,-2.7821,-2.7897,0,-2.7415,-2.7497,-2.7503,-2.7577,-2.7616,-2.7607,-2.7647,-2.7674,-2.7685,-2.772,-2.7733,-2.7772,-2.7751,-2.7765,-2.7795,-2.781,-2.7852,-2.7804,-2.7853,-2.7854,-2.7845,-2.7935,-2.7946,-2.8016,-2.7906,-2.7908,-2.7909,0,-2.7512,-2.7545,-2.7623,-2.7653,-2.767,-2.7706,-2.7743,-2.7777,-2.7806,-2.7812,-2.7838,-2.7836,-2.7882,-2.7851,-2.7916,-2.7883,-2.7903,-2.7913,-2.7916,-2.792,-2.7885,-2.7941,-2.8039,-2.8049,-2.7925,-2.7924,-2.7923,0,-2.7567,-2.7632,-2.7687,-2.7703,-2.774,-2.7766,-2.7782,-2.781,-2.7833,-2.7866,-2.7881,-2.7919,-2.7939,-2.7968,-2.7976,-2.7952,-2.8039,-2.8009,-2.8045,-2.8045,-2.8064,-2.8062,-2.8165,-2.8078,-2.8078,-2.8077,-2.8077,0,-2.7648,-2.7696,-2.7712,-2.7745,-2.7798,-2.7805,-2.7857,-2.7872,-2.7896,-2.7932,-2.7927,-2.7961,-2.7969,-2.8004,-2.8011,-2.8062,-2.8072,-2.8078,-2.8079,-2.8078,-2.8077,-2.8091,-2.8086,-2.808,-2.808,-2.8079,-2.8079,0,-2.7719,-2.7732,-2.7791,-2.7821,-2.783,-2.7867,-2.7893,-2.7925,-2.7936,-2.7982,-2.7993,-2.801,-2.8052,-2.8062,-2.8111,-2.8115,-2.8176,-2.8173,-2.8167,-2.8166,-2.8202,-2.8198,-2.8317,-2.8332,-2.8235,-2.8236,-2.8237,0,-2.7769,-2.7806,-2.784,-2.7864,-2.7882,-2.7921,-2.7945,-2.7953,-2.7978,-2.8014,-2.8042,-2.8083,-2.8115,-2.8181,-2.8198,-2.8235,-2.8233,-2.8272,-2.8238,-2.8236,-2.8232,-2.823,-2.8233,-2.8278,-2.8279,-2.828,-2.828,0,-2.7857,-2.7862,-2.7898,-2.7936,-2.7965,-2.7995,-2.8024,-2.8044,-2.8055,-2.8084,-2.8127,-2.8152,-2.8202,-2.8243,-2.828,-2.8297,-2.829,-2.8291,-2.8301,-2.83,-2.8295,-2.8298,-2.8183,-2.8288,-2.8287,-2.8287,-2.8286,-2.8286,-2.7919,-2.7951,-2.798,-2.802,-2.8043,-2.807,-2.8101,-2.8117,-2.8152,-2.8194,-2.8196,-2.8242,-2.827,-2.8321,-2.8339,-2.8375,-2.8363,-2.8378,-2.8381,-2.8385,-2.8388,-2.829,-2.8382,-2.8381,-2.8381,-2.8381,-2.8381,0,-2.8006,-2.8025,-2.8062,-2.8102,-2.8134,-2.8126,-2.8157,-2.8184,-2.8224,-2.8251,-2.8284,-2.8332,-2.8371,-2.8391,-2.843,-2.8454,-2.8452,-2.8464,-2.8462,-2.8466,-2.8396,-2.8383,-2.8465,-2.8465,-2.8465,-2.8465,-2.8465,-2.8465,-2.8055,-2.8109,-2.8117,-2.8181,-2.8199,-2.8245,-2.8263,-2.8288,-2.831,-2.8364,-2.8397,-2.841,-2.8434,-2.8474,-2.8509,-2.8514,-2.8528,-2.8542,-2.8545,-2.8479,-2.8471,-2.8462,-2.845,-2.8545,-2.8545,-2.8611,-2.8612,-2.8612]}]]